Regional Weather Roundup
Issued by NWS

Home | Current Version | Previous Version | Text Only | Print | Product List | Glossary Off
Versions: 1 2 3 4 5 6 7 8 9 10 11 12 13 14 15 16 17 18 19 20 21 22 23 24 25 26 27 28 29 30 31 32 33 34 35 36 37 38 39 40 41 42 43 44 45 46 47 48 49 50

000
ASUS43 KIND 012059
RWRIN

WEATHER ROUNDUP FOR INDIANA
NATIONAL WEATHER SERVICE INDIANAPOLIS IN
500 PM EDT WED OCT 01 2014

NOTE: "FAIR" INDICATES FEW OR NO CLOUDS BELOW 12,000 FEET WITH NO
SIGNIFICANT WEATHER AND/OR OBSTRUCTIONS TO VISIBILITY.

* - STATION DOES NOT REPORT WEATHER SUCH AS PRECIPITATION OR FOG.

+ - STATION NOT QUALITY CONTROLLED BY THE NATIONAL WEATHER SERVICE.
    USE DATA WITH CAUTION...ESPECIALLY DEWPOINT AND RELATIVE
    HUMIDITY OBSERVATIONS.

INZ001>003-010>013-019-020-012200-
NORTHWEST INDIANA

CITY           SKY/WX    TMP DP  RH WIND       PRES   REMARKS
GARY /AIRPORT/ PTSUNNY   72  52  49 SE12      29.92F
VALPARAISO     NOT AVBL

$$

LMZ046-743>745-012200-
SOUTHERN LAKE MICHIGAN

STATION/POSITION TIME  TEMP WIND        PRES
                       AIR  DIR/SP/G
                 (UTC) (F)  (DEG/KT/KT) (MB)
MICHIGAN CITY    2000   67  130/  8/ 10   N/A

$$

INZ004-005-014>016-021>024-012200-
NORTH CENTRAL INDIANA

CITY           SKY/WX    TMP DP  RH WIND       PRES   REMARKS
ELKHART        SUNNY     68  48  49 SE9       29.98F
SOUTH BEND     NOT AVBL

$$

INZ006>009-017-018-025>027-012200-
NORTHEAST INDIANA

CITY           SKY/WX    TMP DP  RH WIND       PRES   REMARKS
ANGOLA *+      SUNNY     68  48  49 SE7       30.00F
FORT WAYNE     MOSUNNY   66  50  56 VRB5      30.00F

$$

INZ028-029-035-036-043>045-051>053-012200-
WEST CENTRAL INDIANA

CITY           SKY/WX    TMP DP  RH WIND       PRES   REMARKS
GREENCASTLE +  SUNNY     77  59  53 E7        29.94S
LAFAYETTE      SUNNY     75  58  55 E8        29.92F
TERRE HAUTE    SUNNY     81  56  42 S7        29.91F

$$

INZ030>032-037>040-046>048-054>057-064-065-012200-
CENTRAL INDIANA

CITY           SKY/WX    TMP DP  RH WIND       PRES   REMARKS
COLUMBUS       SUNNY     79  55  44 CALM      29.95
INDIANAPOLIS   MOSUNNY   76  56  49 CALM      29.94F
-EAGLE CREEK   SUNNY     76  57  51 E7        29.94F
KOKOMO *+      SUNNY     72  48  43 E7        29.97F
MT COMFORT *+  SUNNY     77  41  27 E5        29.96F
SHELBYVILLE    SUNNY     80  55  42 E7        29.95F

$$

INZ033-034-041-042-049-050-058-059-012200-
EAST CENTRAL INDIANA

CITY           SKY/WX    TMP DP  RH WIND       PRES   REMARKS
MUNCIE         SUNNY     71  47  42 VRB6      29.98F

$$

INZ060-061-067>069-081>083-085>088-012200-
SOUTHWEST INDIANA

CITY           SKY/WX    TMP DP  RH WIND       PRES   REMARKS
EVANSVILLE     SUNNY     86  54  33 SW7       29.90F

$$

INZ062-063-066-070>080-084-089>092-012200-
SOUTH CENTRAL AND SOUTHEAST INDIANA

CITY           SKY/WX    TMP DP  RH WIND       PRES   REMARKS
BLOOMINGTON    SUNNY     78  61  55 VRB7      29.94F
SEYMOUR +      SUNNY     82  59  44 S5        29.94

$$




USA.gov is the U.S. government's official web portal to all federal, state and local government web resources and services.